sat.trackr.live / text

‹ back to catalog

YAOGAN-40 01B

NORAD 57832 · 2023-139C

PAYLOAD ACTIVE UNKNOWN

§ Identity

Operator
Country
PRC
Launch date
2023-09-10
Launch site
TAISC
Launch vehicle
Mass (kg)
RCS (m²)

External: N2YO · Heavens-Above · Gunter

§ Orbital elements

Epoch: 2026-09-22T23:40:40.039392Z

Period
101.95 min
Inclination
85.9933°
Eccentricity
0.0001969
Mean motion
14.12464429 rev/d
Perigee alt
849.5 km
Apogee alt
852.4 km
Semi-major
7,229.1 km
B*
5.4746e-5
RAAN
216.0416°
Arg perigee
87.3299°
Mean anomaly
272.8110°
Rev number
15,651

§ Raw data

YAOGAN-40 01B1 57832U 23139C   26265.98657453  .00000120  00000+0  54746-4 0  99932 57832  85.9933 216.0416 0001969  87.3299 272.8110 14.12464429156513

JSON: /api/v1/satellites/57832 · /tle

For live sub-satellite position, see the globe view (requires WebGL).

§ Visibility from observer

Set your observer location to see the next 7 days of passes ≥ 10°. The values pass through the URL so the page stays shareable.

No JS? Fill the form by hand. The geolocation button needs JavaScript.